,,Stat5,,Stat1,,Stat2,,Stat3,,Stat4,,Wind1,,Wind1,
time,status,PA1M_AVG,status,PR1M_SUM,status,RH1M_AVG,status,SR1M_AVG,status,TA1M_AVG,status,W1dAve1m,status,W1sAve1m,
2003-03-09, 00:00:01,VALID,919.005,VALID,0,VALID,93.9614,VALID,0.0339617,VALID,19.5156,VALID,138,VALID,0.191406,
2003-03-09, 00:01:00,VALID,919.008,VALID,0,VALID,93.8152,VALID,0.0169808,VALID,19.5243,VALID,138,VALID,0.0214286,
2003-03-09, 00:02:00,VALID,918.989,VALID,0,VALID,93.6918,VALID,0.0339617,VALID,19.5275,VALID,138,VALID,0.0454359,
2003-03-09, 00:03:00,VALID,918.983,VALID,0,VALID,93.4133,VALID,0,VALID,19.5409,VALID,138,VALID,0.339286,
2003-03-09, 00:04:00,VALID,918.978,VALID,0,VALID,93.3167,VALID,0,VALID,19.5181,VALID,138,VALID,0.476162,
2003-03-09, 00:05:00,VALID,918.981,VALID,0,VALID,93.6422,VALID,0,VALID,19.492,VALID,138,VALID,0.630425,
2003-03-09, 00:06:00,VALID,918.971,VALID,0,VALID,93.5952,VALID,0,VALID,19.4669,VALID,141,VALID,0.626402,
2003-03-09, 00:07:00,VALID,918.98,VALID,0,VALID,93.9449,VALID,0.0169808,VALID,19.4276,VALID,144,VALID,0.811899,
2003-03-09, 00:08:00,VALID,918.972,VALID,0,VALID,94.2361,VALID,0.0849042,VALID,19.4269,VALID,140,VALID,0.651816,
2003-03-09, 00:09:00,VALID,918.974,VALID,0,VALID,94.2679,VALID,0.0509425,VALID,19.437,VALID,136,VALID,0.494922,
2003-03-09, 00:10:00,VALID,918.981,VALID,0,VALID,94.409,VALID,0.0679233,VALID,19.4659,VALID,114,VALID,0.608482,
2003-03-09, 00:11:00,VALID,918.974,VALID,0,VALID,94.2818,VALID,0.0169808,VALID,19.4922,VALID,118,VALID,0.564732,
2003-03-09, 00:12:00,VALID,918.971,VALID,0,VALID,94.3696,VALID,0.0339617,VALID,19.5084,VALID,121,VALID,0.489104,
2003-03-09, 00:13:00,VALID,918.938,VALID,0,VALID,94.2195,VALID,0.0339617,VALID,19.5342,VALID,117,VALID,0.429688,
2003-03-09, 00:14:00,VALID,918.93,VALID,0,VALID,93.9055,VALID,0.0509425,VALID,19.5407,VALID,134,VALID,0.460175,
2003-03-09, 00:15:00,VALID,918.89,VALID,0,VALID,93.7071,VALID,0.0509425,VALID,19.5176,VALID,129,VALID,0.221284,
2003-03-09, 00:16:00,VALID,918.874,VALID,0,VALID,93.3421,VALID,0.0339617,VALID,19.4728,VALID,128,VALID,0.34565,
2003-03-09, 00:17:00,VALID,918.846,VALID,0,VALID,93.6524,VALID,0.0169808,VALID,19.4271,VALID,120,VALID,0.465909,
2003-03-09, 00:18:00,VALID,918.829,VALID,0,VALID,94.0364,VALID,0.0169808,VALID,19.4239,VALID,120,VALID,0.0694901,
2003-03-09, 00:19:00,VALID,918.808,VALID,0,VALID,94.2106,VALID,0.0169808,VALID,19.4144,VALID,120,VALID,0.114309,
2003-03-09, 00:20:00,VALID,918.793,VALID,0,VALID,94.2221,VALID,0.0169808,VALID,19.408,VALID,120,VALID,0.190705,
2003-03-09, 00:21:00,VALID,918.779,VALID,0,VALID,94.1954,VALID,0,VALID,19.3888,VALID,120,VALID,0.216146,
2003-03-09, 00:22:00,VALID,918.759,VALID,0,VALID,94.3098,VALID,0.0169808,VALID,19.3859,VALID,120,VALID,0.341639,
2003-03-09, 00:23:00,VALID,918.75,VALID,0,VALID,94.5247,VALID,0.0169808,VALID,19.3657,VALID,120,VALID,0.529688,
2003-03-09, 00:24:00,VALID,918.723,VALID,0,VALID,94.334,VALID,0.0339617,VALID,19.3434,VALID,120,VALID,0.237723,
2003-03-09, 00:25:00,VALID,918.721,VALID,0,VALID,94.2577,VALID,0.0169808,VALID,19.3046,VALID,120,VALID,0.304018,
2003-03-09, 00:26:00,VALID,918.709,VALID,0,VALID,94.4014,VALID,0.0339617,VALID,19.2822,VALID,120,VALID,0.33162,
2003-03-09, 00:27:01,VALID,918.684,VALID,0,VALID,94.5324,VALID,0.0509425,VALID,19.2626,VALID,120,VALID,0.567411,
2003-03-09, 00:28:00,VALID,918.672,VALID,0,VALID,94.5909,VALID,0,VALID,19.2633,VALID,120,VALID,0.700076,
2003-03-09, 00:29:00,VALID,918.672,VALID,0,VALID,94.5845,VALID,0.0169808,VALID,19.2494,VALID,120,VALID,0.528294,
2003-03-09, 00:30:00,VALID,918.673,VALID,0,VALID,94.568,VALID,0.0169808,VALID,19.2728,VALID,109,VALID,0.6231,
2003-03-09, 00:31:00,VALID,918.649,VALID,0,VALID,94.47,VALID,0,VALID,19.2922,VALID,106,VALID,0.736979,
2003-03-09, 00:32:01,VALID,918.64,VALID,0,VALID,94.2297,VALID,0.0509425,VALID,19.3275,VALID,88,VALID,0.714844,
2003-03-09, 00:33:01,VALID,918.623,VALID,0,VALID,93.8292,VALID,0,VALID,19.3498,VALID,75,VALID,0.794613,
2003-03-09, 00:34:00,VALID,918.623,VALID,0,VALID,93.5583,VALID,0.0169808,VALID,19.3829,VALID,82,VALID,0.816907,
2003-03-09, 00:35:00,VALID,918.619,VALID,0,VALID,93.337,VALID,0.0339617,VALID,19.3926,VALID,83,VALID,0.734776,
2003-03-09, 00:36:01,VALID,918.623,VALID,0,VALID,93.2493,VALID,0,VALID,19.3759,VALID,82,VALID,0.834882,
2003-03-09, 00:37:00,VALID,918.632,VALID,0,VALID,93.1272,VALID,0,VALID,19.3702,VALID,79,VALID,0.68418,
2003-03-09, 00:38:00,VALID,918.618,VALID,0,VALID,92.8678,VALID,0,VALID,19.3118,VALID,73,VALID,0.634598,
2003-03-09, 00:39:00,VALID,918.62,VALID,0,VALID,93.0764,VALID,0,VALID,19.2633,VALID,67,VALID,0.561161,
2003-03-09, 00:40:00,VALID,918.614,VALID,0,VALID,93.0344,VALID,0,VALID,19.1701,VALID,56,VALID,0.576686,
2003-03-09, 00:41:01,VALID,918.592,VALID,0,VALID,93.3294,VALID,0,VALID,19.0561,VALID,52,VALID,0.564062,
2003-03-09, 00:42:00,VALID,918.59,VALID,0,VALID,94.1458,VALID,0.0169808,VALID,19.0012,VALID,52,VALID,0.262576,
2003-03-09, 00:43:00,VALID,918.586,VALID,0,VALID,94.7345,VALID,0,VALID,19.0178,VALID,52,VALID,0.255279,
2003-03-09, 00:44:00,VALID,918.571,VALID,0,VALID,95.3106,VALID,0.0339617,VALID,19.0594,VALID,74,VALID,0.568201,
2003-03-09, 00:45:00,VALID,918.557,VALID,0,VALID,95.1834,VALID,0.0339617,VALID,19.108,VALID,118,VALID,0.583807,
2003-03-09, 00:46:00,VALID,918.557,VALID,0,VALID,95.1783,VALID,0.0339617,VALID,19.1309,VALID,124,VALID,0.930099,
2003-03-09, 00:47:01,VALID,918.544,VALID,0,VALID,95.0054,VALID,0,VALID,19.1533,VALID,113,VALID,0.813528,
2003-03-09, 00:48:01,VALID,918.534,VALID,0,VALID,94.8795,VALID,0,VALID,19.1697,VALID,119,VALID,0.440104,
2003-03-09, 00:49:00,VALID,918.529,VALID,0,VALID,94.6176,VALID,0.0169808,VALID,19.16,VALID,135,VALID,0.466146,
2003-03-09, 00:50:00,VALID,918.513,VALID,0,VALID,94.6875,VALID,0,VALID,19.1535,VALID,133,VALID,0.399071,
2003-03-09, 00:51:00,VALID,918.494,VALID,0,VALID,94.9685,VALID,-0.0339617,VALID,19.1637,VALID,146,VALID,0.617188,
2003-03-09, 00:52:00,VALID,918.484,VALID,0,VALID,95.2686,VALID,-0.0849042,VALID,19.1679,VALID,139,VALID,0.773438,
2003-03-09, 00:53:00,VALID,918.467,VALID,0,VALID,95.3818,VALID,-0.101885,VALID,19.1552,VALID,138,VALID,0.577232,
2003-03-09, 00:54:00,VALID,918.446,VALID,0,VALID,95.5407,VALID,-0.0679233,VALID,19.152,VALID,131,VALID,0.637952,
2003-03-09, 00:55:01,VALID,918.431,VALID,0,VALID,95.7722,VALID,-0.0849042,VALID,19.1393,VALID,141,VALID,0.627902,
2003-03-09, 00:56:00,VALID,918.423,VALID,0,VALID,95.9209,VALID,-0.101885,VALID,19.1194,VALID,136,VALID,0.626143,
2003-03-09, 00:57:00,VALID,918.412,VALID,0,VALID,96.057,VALID,-0.0849042,VALID,19.1201,VALID,126,VALID,0.506123,
2003-03-09, 00:58:01,VALID,918.413,VALID,0,VALID,96.188,VALID,-0.101885,VALID,19.1095,VALID,146,VALID,0.517525,
2003-03-09, 00:59:00,VALID,918.386,VALID,0,VALID,96.1282,VALID,-0.101885,VALID,19.1134,VALID,139,VALID,0.440814,
2003-03-09, 01:00:00,VALID,918.395,VALID,0,VALID,96.2477,VALID,-0.0849042,VALID,19.1192,VALID,118,VALID,0.517103,
2003-03-09, 01:01:01,VALID,918.396,VALID,0,VALID,96.1791,VALID,-0.101885,VALID,19.1361,VALID,117,VALID,0.542146,
2003-03-09, 01:02:00,VALID,918.387,VALID,0,VALID,95.8523,VALID,-0.0679233,VALID,19.1383,VALID,110,VALID,0.861378,
2003-03-09, 01:03:00,VALID,918.393,VALID,0,VALID,95.5763,VALID,-0.0679233,VALID,19.1485,VALID,101,VALID,0.835938,
2003-03-09, 01:04:00,VALID,918.393,VALID,0,VALID,95.2953,VALID,-0.0849042,VALID,19.184,VALID,103,VALID,0.968328,
2003-03-09, 01:05:00,VALID,918.395,VALID,0,VALID,94.9939,VALID,-0.101885,VALID,19.223,VALID,101,VALID,1.02051,
2003-03-09, 01:06:00,VALID,918.393,VALID,0,VALID,94.5387,VALID,-0.0679233,VALID,19.2613,VALID,99,VALID,0.854018,
2003-03-09, 01:07:00,VALID,918.388,VALID,0,VALID,94.1852,VALID,-0.0339617,VALID,19.2969,VALID,107,VALID,0.875223,
2003-03-09, 01:08:00,VALID,918.386,VALID,0,VALID,93.8686,VALID,-0.0509425,VALID,19.3061,VALID,87,VALID,0.952919,
2003-03-09, 01:09:01,VALID,918.385,VALID,0,VALID,93.5647,VALID,-0.0339617,VALID,19.3125,VALID,86,VALID,1.03728,
2003-03-09, 01:10:00,VALID,918.366,VALID,0,VALID,93.3536,VALID,-0.0339617,VALID,19.3058,VALID,83,VALID,1.04002,
2003-03-09, 01:11:01,VALID,918.374,VALID,0,VALID,93.2785,VALID,-0.0679233,VALID,19.316,VALID,85,VALID,1.07242,
2003-03-09, 01:12:00,VALID,918.339,VALID,0,VALID,93.3014,VALID,-0.0339617,VALID,19.2994,VALID,82,VALID,1.05236,
2003-03-09, 01:13:00,VALID,918.328,VALID,0,VALID,93.3485,VALID,-0.0169808,VALID,19.2772,VALID,86,VALID,0.878078,
2003-03-09, 01:14:01,VALID,918.301,VALID,0,VALID,93.5405,VALID,-0.0509425,VALID,19.2544,VALID,96,VALID,0.687294,
2003-03-09, 01:15:01,VALID,918.276,VALID,0,VALID,93.5278,VALID,-0.0509425,VALID,19.2382,VALID,115,VALID,0.80037,
2003-03-09, 01:16:00,VALID,918.253,VALID,0,VALID,93.4388,VALID,0,VALID,19.2477,VALID,122,VALID,0.707131,
2003-03-09, 01:17:00,VALID,918.233,VALID,0,VALID,93.3243,VALID,-0.0169808,VALID,19.2479,VALID,128,VALID,0.773638,
2003-03-09, 01:18:01,VALID,918.217,VALID,0,VALID,93.3116,VALID,0,VALID,19.2477,VALID,117,VALID,0.823691,
2003-03-09, 01:19:01,VALID,918.184,VALID,0,VALID,93.2518,VALID,-0.0169808,VALID,19.2576,VALID,115,VALID,0.642383,
2003-03-09, 01:20:00,VALID,918.168,VALID,0,VALID,93.1984,VALID,-0.0339617,VALID,19.2477,VALID,114,VALID,0.566741,
2003-03-09, 01:21:00,VALID,918.16,VALID,0,VALID,93.2569,VALID,-0.0169808,VALID,19.232,VALID,114,VALID,0.586384,
2003-03-09, 01:22:00,VALID,918.14,VALID,0,VALID,93.5087,VALID,-0.0339617,VALID,19.2089,VALID,114,VALID,0.78639,
2003-03-09, 01:23:01,VALID,918.129,VALID,0,VALID,93.6956,VALID,-0.0169808,VALID,19.2124,VALID,112,VALID,0.948214,
2003-03-09, 01:24:00,VALID,918.124,VALID,0,VALID,93.805,VALID,-0.0509425,VALID,19.2091,VALID,107,VALID,0.96875,
2003-03-09, 01:25:00,VALID,918.099,VALID,0,VALID,93.9296,VALID,-0.0339617,VALID,19.2027,VALID,105,VALID,1.0511,
2003-03-09, 01:26:00,VALID,918.099,VALID,0,VALID,93.8139,VALID,0,VALID,19.2022,VALID,110,VALID,1.1307,
2003-03-09, 01:27:00,VALID,918.084,VALID,0,VALID,93.5812,VALID,-0.0509425,VALID,19.2154,VALID,108,VALID,1.17661,
2003-03-09, 01:28:00,VALID,918.091,VALID,0,VALID,93.2391,VALID,-0.0339617,VALID,19.2126,VALID,109,VALID,1.23623,
2003-03-09, 01:29:01,VALID,918.069,VALID,0,VALID,92.9568,VALID,-0.0169808,VALID,19.2191,VALID,116,VALID,1.12233,
2003-03-09, 01:30:01,VALID,918.057,VALID,0,VALID,92.5893,VALID,-0.0169808,VALID,19.2382,VALID,116,VALID,1.29046,
2003-03-09, 01:31:00,VALID,918.043,VALID,0,VALID,92.3032,VALID,0,VALID,19.2576,VALID,115,VALID,1.35917,
2003-03-09, 01:32:00,VALID,918.023,VALID,0,VALID,92.1659,VALID,0,VALID,19.2735,VALID,103,VALID,1.22023,
2003-03-09, 01:33:00,VALID,918.011,VALID,0,VALID,92.1748,VALID,-0.0339617,VALID,19.2832,VALID,102,VALID,1.21523,
2003-03-09, 01:34:00,VALID,917.986,VALID,0,VALID,92.3477,VALID,0.0169808,VALID,19.2832,VALID,109,VALID,1.35335,
2003-03-09, 01:35:00,VALID,917.989,VALID,0,VALID,92.5397,VALID,-0.0169808,VALID,19.2767,VALID,110,VALID,1.18147,
2003-03-09, 01:36:00,VALID,917.982,VALID,0,VALID,92.6796,VALID,0.0339617,VALID,19.2571,VALID,107,VALID,1.15234,
2003-03-09, 01:37:01,VALID,917.987,VALID,0,VALID,92.8615,VALID,0.101885,VALID,19.2238,VALID,114,VALID,1.12746,
2003-03-09, 01:38:00,VALID,917.986,VALID,0,VALID,93.0598,VALID,0.0339617,VALID,19.205,VALID,115,VALID,1.2439,
2003-03-09, 01:39:00,VALID,917.988,VALID,0,VALID,93.0459,VALID,0.0339617,VALID,19.1555,VALID,115,VALID,1.46242,
2003-03-09, 01:40:01,VALID,917.978,VALID,0,VALID,93.0471,VALID,0.0679233,VALID,19.1463,VALID,113,VALID,1.21052,
2003-03-09, 01:41:00,VALID,917.963,VALID,0,VALID,93.0306,VALID,0.101885,VALID,19.1396,VALID,103,VALID,1.06487,
2003-03-09, 01:42:00,VALID,917.96,VALID,0,VALID,93.0026,VALID,0.0849042,VALID,19.1458,VALID,103,VALID,0.960732,
2003-03-09, 01:43:01,VALID,917.94,VALID,0,VALID,92.9505,VALID,0.101885,VALID,19.1632,VALID,102,VALID,1.26275,
2003-03-09, 01:44:00,VALID,917.938,VALID,0,VALID,92.9594,VALID,0.0849042,VALID,19.153,VALID,112,VALID,1.08033,
2003-03-09, 01:45:01,VALID,917.945,VALID,0,VALID,92.9835,VALID,0.101885,VALID,19.1299,VALID,120,VALID,0.960537,
2003-03-09, 01:46:00,VALID,917.936,VALID,0,VALID,93.1488,VALID,0.0849042,VALID,19.1138,VALID,123,VALID,1.00612,
2003-03-09, 01:47:00,VALID,917.935,VALID,0,VALID,93.1984,VALID,0.0509425,VALID,19.1177,VALID,123,VALID,1.09707,
2003-03-09, 01:48:00,VALID,917.924,VALID,0,VALID,93.0573,VALID,0.0849042,VALID,19.124,VALID,112,VALID,1.33125,
2003-03-09, 01:49:00,VALID,917.923,VALID,0,VALID,92.8551,VALID,0.0679233,VALID,19.1496,VALID,126,VALID,1.16071,
2003-03-09, 01:50:00,VALID,917.906,VALID,0,VALID,92.719,VALID,0.0849042,VALID,19.1719,VALID,100,VALID,0.893709,
2003-03-09, 01:51:01,VALID,917.887,VALID,0,VALID,92.5881,VALID,0.0509425,VALID,19.1664,VALID,107,VALID,0.939062,
2003-03-09, 01:52:00,VALID,917.866,VALID,0,VALID,92.6656,VALID,-0.0169808,VALID,19.1441,VALID,99,VALID,0.797447,
2003-03-09, 01:53:01,VALID,917.843,VALID,0,VALID,92.7801,VALID,0,VALID,19.1214,VALID,100,VALID,0.813978,
2003-03-09, 01:54:01,VALID,917.816,VALID,0,VALID,92.6415,VALID,0,VALID,19.109,VALID,122,VALID,0.905828,
2003-03-09, 01:55:00,VALID,917.796,VALID,0,VALID,92.4863,VALID,-0.0169808,VALID,19.1088,VALID,137,VALID,0.985322,
2003-03-09, 01:56:01,VALID,917.791,VALID,0,VALID,92.321,VALID,-0.0169808,VALID,19.1088,VALID,133,VALID,0.716694,
2003-03-09, 01:57:01,VALID,917.784,VALID,0,VALID,92.2676,VALID,-0.0169808,VALID,19.1085,VALID,129,VALID,0.575658,
2003-03-09, 01:58:00,VALID,917.761,VALID,0,VALID,91.9713,VALID,-0.0679233,VALID,19.1157,VALID,122,VALID,0.901442,
2003-03-09, 01:59:01,VALID,917.741,VALID,0,VALID,91.5098,VALID,0,VALID,19.1316,VALID,115,VALID,1.02925,
2003-03-09, 02:00:01,VALID,917.714,VALID,0,VALID,91.202,VALID,-0.0679233,VALID,19.1637,VALID,112,VALID,1.05342,
2003-03-09, 02:01:01,VALID,917.677,VALID,0,VALID,90.9375,VALID,-0.0169808,VALID,19.1995,VALID,111,VALID,1.24648,
2003-03-09, 02:02:01,VALID,917.653,VALID,0,VALID,90.6451,VALID,0,VALID,19.2511,VALID,115,VALID,1.13929,
2003-03-09, 02:03:01,VALID,917.62,VALID,0,VALID,90.467,VALID,-0.0509425,VALID,19.2834,VALID,127,VALID,0.829241,
2003-03-09, 02:04:01,VALID,917.615,VALID,0,VALID,90.4925,VALID,0,VALID,19.3098,VALID,135,VALID,0.523643,
2003-03-09, 02:05:01,VALID,917.613,VALID,0,VALID,90.5332,VALID,-0.0339617,VALID,19.3093,VALID,140,VALID,0.857143,
2003-03-09, 02:06:01,VALID,917.597,VALID,0,VALID,90.4263,VALID,-0.0339617,VALID,19.2964,VALID,129,VALID,1.0444,
2003-03-09, 02:07:01,VALID,917.588,VALID,0,VALID,90.3157,VALID,-0.0339617,VALID,19.3125,VALID,116,VALID,0.78484,
2003-03-09, 02:08:01,VALID,917.578,VALID,0,VALID,90.2598,VALID,0,VALID,19.3254,VALID,104,VALID,0.464105,
2003-03-09, 02:09:01,VALID,917.57,VALID,0,VALID,90.2521,VALID,0,VALID,19.3287,VALID,109,VALID,0.616241,
2003-03-09, 02:10:01,VALID,917.537,VALID,0,VALID,90.303,VALID,-0.0169808,VALID,19.3155,VALID,107,VALID,0.942434,
2003-03-09, 02:11:01,VALID,917.514,VALID,0,VALID,90.2343,VALID,0.0169808,VALID,19.2998,VALID,109,VALID,1.02734,
2003-03-09, 02:12:01,VALID,917.482,VALID,0,VALID,90.0169,VALID,-0.0339617,VALID,19.3091,VALID,114,VALID,1.13742,
2003-03-09, 02:13:01,VALID,917.462,VALID,0,VALID,89.8821,VALID,0,VALID,19.3414,VALID,115,VALID,0.927284,
2003-03-09, 02:14:01,VALID,917.442,VALID,0,VALID,89.8465,VALID,0,VALID,19.3446,VALID,113,VALID,0.872889,
2003-03-09, 02:15:01,VALID,917.428,VALID,0,VALID,89.8859,VALID,-0.0169808,VALID,19.3448,VALID,125,VALID,0.691211,
2003-03-09, 02:16:01,VALID,917.415,VALID,0,VALID,90.0131,VALID,-0.0169808,VALID,19.3317,VALID,126,VALID,0.570089,
2003-03-09, 02:17:01,VALID,917.385,VALID,0,VALID,90.2292,VALID,0,VALID,19.3061,VALID,124,VALID,0.630357,
2003-03-09, 02:18:01,VALID,917.364,VALID,0,VALID,90.2496,VALID,-0.0169808,VALID,19.2738,VALID,112,VALID,0.94449,
2003-03-09, 02:19:01,VALID,917.34,VALID,0,VALID,90.1733,VALID,-0.0169808,VALID,19.2511,VALID,109,VALID,1.1221,
2003-03-09, 02:20:01,VALID,917.326,VALID,0,VALID,90.1072,VALID,-0.0169808,VALID,19.2516,VALID,111,VALID,0.966463,
2003-03-09, 02:21:01,VALID,917.313,VALID,0,VALID,89.9126,VALID,0,VALID,19.2511,VALID,111,VALID,1.02407,
2003-03-09, 02:22:01,VALID,917.309,VALID,0,VALID,89.9126,VALID,-0.0169808,VALID,19.2544,VALID,119,VALID,0.691934,
2003-03-09, 02:23:00,VALID,917.288,VALID,0,VALID,90.0779,VALID,-0.0339617,VALID,19.2285,VALID,127,VALID,0.533617,
2003-03-09, 02:24:00,VALID,917.266,VALID,0,VALID,90.3691,VALID,0,VALID,19.1967,VALID,122,VALID,0.823808,
2003-03-09, 02:25:00,VALID,917.245,VALID,0,VALID,90.5827,VALID,-0.0679233,VALID,19.1515,VALID,117,VALID,0.599095,
2003-03-09, 02:26:00,VALID,917.219,VALID,0,VALID,90.7252,VALID,-0.0169808,VALID,19.106,VALID,117,VALID,0.569712,
2003-03-09, 02:27:00,VALID,917.196,VALID,0,VALID,90.8511,VALID,-0.0169808,VALID,19.067,VALID,127,VALID,0.670272,
2003-03-09, 02:28:00,VALID,917.18,VALID,0,VALID,90.9655,VALID,0,VALID,19.0282,VALID,133,VALID,0.712627,
2003-03-09, 02:29:00,VALID,917.172,VALID,0,VALID,90.9858,VALID,-0.0339617,VALID,19.0186,VALID,127,VALID,0.722266,
2003-03-09, 02:30:00,VALID,917.157,VALID,0,VALID,91.0787,VALID,-0.0169808,VALID,19.0317,VALID,141,VALID,0.680357,
2003-03-09, 02:31:00,VALID,917.152,VALID,0,VALID,91.1384,VALID,-0.0169808,VALID,19.0382,VALID,134,VALID,0.903795,
2003-03-09, 02:32:00,VALID,917.141,VALID,0,VALID,91.0977,VALID,-0.0509425,VALID,19.0511,VALID,126,VALID,0.893298,
2003-03-09, 02:33:00,VALID,917.147,VALID,0,VALID,90.8765,VALID,-0.0169808,VALID,19.067,VALID,126,VALID,0.558259,
2003-03-09, 02:34:00,VALID,917.143,VALID,0,VALID,90.8943,VALID,-0.0169808,VALID,19.0929,VALID,119,VALID,0.82641,
2003-03-09, 02:35:00,VALID,917.142,VALID,0,VALID,90.86,VALID,0,VALID,19.1321,VALID,113,VALID,0.674198,
2003-03-09, 02:36:00,VALID,917.137,VALID,0,VALID,90.9121,VALID,0,VALID,19.1448,VALID,107,VALID,0.778927,
2003-03-09, 02:37:00,VALID,917.139,VALID,0,VALID,90.9528,VALID,-0.0339617,VALID,19.1515,VALID,106,VALID,0.723722,
2003-03-09, 02:38:00,VALID,917.124,VALID,0,VALID,91.2453,VALID,-0.0339617,VALID,19.1281,VALID,99,VALID,0.719572,
2003-03-09, 02:39:00,VALID,917.117,VALID,0,VALID,91.5072,VALID,-0.0169808,VALID,19.0896,VALID,92,VALID,0.923314,
2003-03-09, 02:40:00,VALID,917.103,VALID,0,VALID,91.6725,VALID,-0.0169808,VALID,19.0673,VALID,92,VALID,0.939303,
2003-03-09, 02:41:00,VALID,917.106,VALID,0,VALID,91.8035,VALID,0,VALID,19.028,VALID,94,VALID,0.867788,
2003-03-09, 02:42:00,VALID,917.099,VALID,0,VALID,91.9726,VALID,-0.0169808,VALID,19.0153,VALID,101,VALID,0.837416,
2003-03-09, 02:43:00,VALID,917.094,VALID,0,VALID,92.054,VALID,-0.0169808,VALID,18.9925,VALID,99,VALID,0.812305,
2003-03-09, 02:44:00,VALID,917.087,VALID,0,VALID,92.0871,VALID,-0.0339617,VALID,18.9798,VALID,107,VALID,0.694196,
2003-03-09, 02:45:00,VALID,917.099,VALID,0,VALID,92.2371,VALID,-0.0339617,VALID,18.9674,VALID,118,VALID,0.771205,
2003-03-09, 02:46:00,VALID,917.101,VALID,0,VALID,92.3249,VALID,-0.0169808,VALID,18.9445,VALID,112,VALID,0.929482,
2003-03-09, 02:47:00,VALID,917.094,VALID,0,VALID,92.405,VALID,0,VALID,18.9152,VALID,115,VALID,0.63817,
2003-03-09, 02:48:00,VALID,917.089,VALID,0,VALID,92.4838,VALID,0,VALID,18.8797,VALID,123,VALID,0.900152,
2003-03-09, 02:49:00,VALID,917.063,VALID,0,VALID,92.5143,VALID,-0.0169808,VALID,18.8474,VALID,112,VALID,0.806377,
2003-03-09, 02:50:00,VALID,917.042,VALID,0,VALID,92.5703,VALID,-0.0169808,VALID,18.8222,VALID,96,VALID,0.602829,
2003-03-09, 02:51:00,VALID,917.013,VALID,0,VALID,92.2142,VALID,0,VALID,18.7768,VALID,105,VALID,1.01799,
2003-03-09, 02:52:00,VALID,916.994,VALID,0,VALID,91.6267,VALID,-0.0339617,VALID,18.7375,VALID,109,VALID,1.22595,
2003-03-09, 02:53:00,VALID,916.985,VALID,0,VALID,91.0799,VALID,-0.0169808,VALID,18.7311,VALID,95,VALID,1.12315,
2003-03-09, 02:54:00,VALID,916.971,VALID,0,VALID,91.1473,VALID,0,VALID,18.7609,VALID,95,VALID,1.1861,
2003-03-09, 02:55:00,VALID,916.96,VALID,0,VALID,90.9057,VALID,-0.0339617,VALID,18.7738,VALID,100,VALID,1.13321,
2003-03-09, 02:56:00,VALID,916.964,VALID,0,VALID,90.5497,VALID,-0.0509425,VALID,18.7959,VALID,102,VALID,1.23754,
2003-03-09, 02:57:00,VALID,916.967,VALID,0,VALID,90.5001,VALID,-0.0169808,VALID,18.8384,VALID,100,VALID,1.08184,
2003-03-09, 02:58:00,VALID,916.946,VALID,0,VALID,90.3551,VALID,-0.0339617,VALID,18.8605,VALID,85,VALID,0.833036,
2003-03-09, 02:59:00,VALID,916.945,VALID,0,VALID,90.2267,VALID,-0.0339617,VALID,18.8737,VALID,91,VALID,0.951786,
2003-03-09, 03:00:00,VALID,916.931,VALID,0,VALID,90.1975,VALID,-0.0169808,VALID,18.8764,VALID,86,VALID,0.871505,
2003-03-09, 03:01:00,VALID,916.923,VALID,0,VALID,90.1123,VALID,-0.0509425,VALID,18.8993,VALID,87,VALID,0.84933,
2003-03-09, 03:02:00,VALID,916.911,VALID,0,VALID,90.0487,VALID,0,VALID,18.9187,VALID,101,VALID,0.921684,
2003-03-09, 03:03:00,VALID,916.883,VALID,0,VALID,90.0423,VALID,0,VALID,18.9542,VALID,104,VALID,0.62141,
2003-03-09, 03:04:00,VALID,916.87,VALID,0,VALID,90.1072,VALID,0,VALID,18.9674,VALID,129,VALID,0.595861,
2003-03-09, 03:05:00,VALID,916.86,VALID,0,VALID,90.256,VALID,-0.0169808,VALID,18.9639,VALID,129,VALID,0.610559,
2003-03-09, 03:06:00,VALID,916.868,VALID,0,VALID,90.3895,VALID,-0.0339617,VALID,18.9579,VALID,131,VALID,0.353413,
2003-03-09, 03:07:00,VALID,916.881,VALID,0,VALID,90.6527,VALID,0,VALID,18.9316,VALID,124,VALID,0.684622,
2003-03-09, 03:08:00,VALID,916.886,VALID,0,VALID,90.977,VALID,0,VALID,18.9092,VALID,123,VALID,0.776843,
2003-03-09, 03:09:00,VALID,916.889,VALID,0,VALID,91.291,VALID,-0.0509425,VALID,18.8734,VALID,116,VALID,0.703325,
2003-03-09, 03:10:00,VALID,916.907,VALID,0,VALID,91.5797,VALID,0,VALID,18.8476,VALID,116,VALID,0.75739,
2003-03-09, 03:11:00,VALID,916.907,VALID,0,VALID,91.8874,VALID,-0.0339617,VALID,18.8257,VALID,120,VALID,0.787305,
2003-03-09, 03:12:00,VALID,916.898,VALID,0,VALID,92.0845,VALID,-0.0169808,VALID,18.8287,VALID,109,VALID,0.98817,
2003-03-09, 03:13:00,VALID,916.881,VALID,0,VALID,92.1786,VALID,-0.0169808,VALID,18.8287,VALID,118,VALID,0.78125,
2003-03-09, 03:14:00,VALID,916.863,VALID,0,VALID,91.9891,VALID,0,VALID,18.8483,VALID,93,VALID,0.799342,
2003-03-09, 03:15:00,VALID,916.848,VALID,0,VALID,91.6789,VALID,-0.0509425,VALID,18.8675,VALID,101,VALID,0.965179,
2003-03-09, 03:16:00,VALID,916.838,VALID,0,VALID,91.4792,VALID,-0.0169808,VALID,18.9094,VALID,98,VALID,1.01639,
2003-03-09, 03:17:00,VALID,916.829,VALID,0,VALID,91.2084,VALID,-0.0849042,VALID,18.9547,VALID,105,VALID,0.847128,
2003-03-09, 03:18:00,VALID,916.816,VALID,0,VALID,90.8396,VALID,-0.0169808,VALID,18.99,VALID,115,VALID,1.05025,
2003-03-09, 03:19:00,VALID,916.809,VALID,0,VALID,90.6095,VALID,-0.0339617,VALID,19.0253,VALID,120,VALID,0.82339,
2003-03-09, 03:20:00,VALID,916.823,VALID,0,VALID,90.4798,VALID,-0.0509425,VALID,19.0685,VALID,134,VALID,0.893914,
2003-03-09, 03:21:00,VALID,916.825,VALID,0,VALID,90.3806,VALID,0,VALID,19.0869,VALID,130,VALID,0.903166,
2003-03-09, 03:22:00,VALID,916.826,VALID,0,VALID,90.4174,VALID,-0.0679233,VALID,19.0834,VALID,122,VALID,0.919471,
2003-03-09, 03:23:00,VALID,916.827,VALID,0,VALID,90.5713,VALID,-0.0339617,VALID,19.0836,VALID,123,VALID,1.01162,
2003-03-09, 03:24:00,VALID,916.836,VALID,0,VALID,90.8282,VALID,-0.0339617,VALID,19.0613,VALID,115,VALID,0.958615,
2003-03-09, 03:25:00,VALID,916.827,VALID,0,VALID,91.0761,VALID,-0.0509425,VALID,19.0387,VALID,123,VALID,1.06055,
2003-03-09, 03:26:00,VALID,916.824,VALID,0,VALID,91.2961,VALID,-0.0339617,VALID,19.0034,VALID,119,VALID,0.904139,
2003-03-09, 03:27:00,VALID,916.828,VALID,0,VALID,91.3762,VALID,-0.0339617,VALID,18.9904,VALID,116,VALID,0.788393,
2003-03-09, 03:28:00,VALID,916.832,VALID,0,VALID,91.3889,VALID,-0.0339617,VALID,18.9547,VALID,106,VALID,0.915707,
2003-03-09, 03:29:00,VALID,916.828,VALID,0,VALID,91.3915,VALID,-0.0169808,VALID,18.9286,VALID,99,VALID,0.953348,
2003-03-09, 03:30:00,VALID,916.839,VALID,0,VALID,91.3597,VALID,-0.0679233,VALID,18.935,VALID,96,VALID,1.07203,
2003-03-09, 03:31:00,VALID,916.84,VALID,0,VALID,91.45,VALID,-0.0339617,VALID,18.9383,VALID,92,VALID,0.944679,
2003-03-09, 03:32:00,VALID,916.827,VALID,0,VALID,91.3889,VALID,-0.0509425,VALID,18.9415,VALID,91,VALID,0.936867,
2003-03-09, 03:33:00,VALID,916.832,VALID,0,VALID,91.4385,VALID,-0.0169808,VALID,18.9487,VALID,73,VALID,0.902225,
2003-03-09, 03:34:00,VALID,916.836,VALID,0,VALID,91.5021,VALID,0,VALID,18.9159,VALID,70,VALID,0.952097,